Tracking 27086 objects as of 22-Mar-2023
HD Live streaming from Space Station
objects crossing your sky now

STARLINK-1918

Track STARLINK-1918 now!
10-day predictions
STARLINK-1918 is classified as:


NORAD ID: 46768
Int'l Code: 2020-074AF
Perigee: 553.5 km
Apogee: 555.3 km
Inclination: 53.1 °
Period: 95.6 minutes
Semi major axis: 6925 km
RCS: Unknown
Launch date: October 24, 2020
Source: United States (US)
Launch site: AIR FORCE EASTERN TEST RANGE (AFETR)
Your satellite tracking list
Your tracking list is empty




NASA's NSSDC Master Catalog

Two Line Element Set (TLE):
1 46768U 20074AF  23081.49310889  .00032313  00000-0  21792-2 0  9995
2 46768  53.0534 159.2769 0001245  84.5970 275.5161 15.06384501133228
Source of the keplerian elements: AFSPC